When you browse on this site, cookies collect data to enhance your experience and personalize the content and advertising you see.
Visit our Privacy Policy to learn more. By continuing to use the site, you agree to this use of cookies and data.
EN

Hourly Weather Ayacucho

Today, 14 August, Friday

Time Temperature Precipitation Wind Pressure Humidity
00:00 +12°C° 0 mm 1 mps 540 mmHg 83%
01:00 +10°C° 0 mm 0 mps 539 mmHg 83%
02:00 +10°C° 0 mm 0 mps 539 mmHg 85%
03:00 +10°C° 0 mm 0 mps 538 mmHg 86%
04:00 +9°C° 0 mm 0 mps 538 mmHg 87%
05:00 +10°C° 0 mm 0 mps 539 mmHg 84%
06:00 +10°C° 0 mm 0 mps 540 mmHg 81%
07:00 +11°C° 0 mm 0 mps 540 mmHg 78%
08:00 +14°C° 0 mm 1 mps 541 mmHg 70%
09:00 +15°C° 0 mm 1 mps 542 mmHg 63%
10:00 +18°C° 0 mm 1 mps 543 mmHg 55%
11:00 +18°C° 0 mm 2 mps 543 mmHg 48%
12:00 +20°C° 0 mm 2 mps 543 mmHg 41%
13:00 +21°C° 0 mm 2 mps 543 mmHg 35%
14:00 +21°C° 0 mm 2 mps 542 mmHg 36%
15:00 +21°C° 0 mm 2 mps 542 mmHg 36%
16:00 +21°C° 0 mm 2 mps 542 mmHg 37%
17:00 +19°C° 0.1 mm 2 mps 541 mmHg 48%
18:00 +17°C° 0.1 mm 2 mps 541 mmHg 58%
19:00 +16°C° 0.1 mm 2 mps 541 mmHg 68%
20:00 +15°C° 0.1 mm 2 mps 541 mmHg 72%
21:00 +14°C° 0.1 mm 2 mps 541 mmHg 76%
22:00 +13°C° 0.1 mm 1 mps 540 mmHg 80%
23:00 +13°C° 0 mm 1 mps 540 mmHg 81%

Tomorrow, 15 August, Saturday

Time Temperature Precipitation Wind Pressure Humidity
00:00 +12°C° 0 mm 1 mps 540 mmHg 83%
01:00 +12°C° 0 mm 1 mps 539 mmHg 84%
02:00 +10°C° 0 mm 0 mps 539 mmHg 85%
03:00 +10°C° 0 mm 0 mps 539 mmHg 87%
04:00 +10°C° 0 mm 0 mps 538 mmHg 88%
05:00 +10°C° 0 mm 0 mps 539 mmHg 85%
06:00 +11°C° 0 mm 0 mps 539 mmHg 82%
07:00 +11°C° 0 mm 0 mps 540 mmHg 79%
08:00 +14°C° 0 mm 1 mps 541 mmHg 70%
09:00 +15°C° 0 mm 1 mps 542 mmHg 62%
10:00 +18°C° 0 mm 1 mps 542 mmHg 54%
11:00 +18°C° 0 mm 2 mps 542 mmHg 48%
12:00 +20°C° 0 mm 2 mps 542 mmHg 43%
13:00 +21°C° 0 mm 2 mps 542 mmHg 38%
14:00 +21°C° 0.1 mm 3 mps 542 mmHg 39%
15:00 +21°C° 0.1 mm 3 mps 542 mmHg 41%
16:00 +21°C° 0.1 mm 4 mps 542 mmHg 42%
17:00 +19°C° 0.3 mm 3 mps 541 mmHg 51%
18:00 +17°C° 0.3 mm 3 mps 541 mmHg 61%
19:00 +16°C° 0.3 mm 2 mps 541 mmHg 70%
20:00 +15°C° 0.1 mm 2 mps 541 mmHg 74%
21:00 +14°C° 0.1 mm 2 mps 541 mmHg 77%
22:00 +14°C° 0.1 mm 1 mps 541 mmHg 81%
23:00 +13°C° 0 mm 1 mps 541 mmHg 83%

Day after tomorrow, 16 August, Sunday

Time Temperature Precipitation Wind Pressure Humidity
00:00 +13°C° 0 mm 1 mps 540 mmHg 85%
01:00 +11°C° 0 mm 0 mps 540 mmHg 87%
02:00 +11°C° 0 mm 0 mps 540 mmHg 88%
03:00 +11°C° 0 mm 0 mps 539 mmHg 89%
04:00 +10°C° 0 mm 0 mps 539 mmHg 90%
05:00 +11°C° 0 mm 0 mps 539 mmHg 88%
06:00 +11°C° 0 mm 0 mps 540 mmHg 85%
07:00 +12°C° 0 mm 0 mps 541 mmHg 83%
08:00 +13°C° 0.1 mm 0 mps 541 mmHg 75%
09:00 +16°C° 0.1 mm 1 mps 542 mmHg 67%
10:00 +18°C° 0.1 mm 1 mps 543 mmHg 60%
11:00 +19°C° 0.1 mm 2 mps 543 mmHg 54%
12:00 +20°C° 0.1 mm 2 mps 543 mmHg 48%
13:00 +21°C° 0.1 mm 3 mps 543 mmHg 43%
14:00 +21°C° 0.1 mm 3 mps 543 mmHg 44%
15:00 +21°C° 0.1 mm 3 mps 542 mmHg 45%
16:00 +21°C° 0.1 mm 3 mps 542 mmHg 46%
17:00 +19°C° 0.6 mm 3 mps 542 mmHg 55%
18:00 +17°C° 0.6 mm 2 mps 541 mmHg 64%
19:00 +15°C° 0.6 mm 1 mps 541 mmHg 74%
20:00 +15°C° 0.5 mm 1 mps 541 mmHg 75%
21:00 +14°C° 0.5 mm 1 mps 541 mmHg 76%
22:00 +13°C° 0.5 mm 0 mps 541 mmHg 78%
23:00 +13°C° 0.1 mm 0 mps 541 mmHg 79%

17 August, Monday

Time Temperature Precipitation Wind Pressure Humidity
00:00 +12°C° 0.1 mm 0 mps 541 mmHg 80%
01:00 +12°C° 0.1 mm 0 mps 540 mmHg 82%
02:00 +11°C° 0 mm 0 mps 540 mmHg 83%
03:00 +11°C° 0 mm 0 mps 539 mmHg 85%
04:00 +10°C° 0 mm 0 mps 539 mmHg 87%
05:00 +11°C° 0 mm 0 mps 540 mmHg 84%
06:00 +11°C° 0 mm 0 mps 540 mmHg 81%
07:00 +12°C° 0 mm 0 mps 541 mmHg 77%
08:00 +14°C° 0 mm 1 mps 542 mmHg 70%
09:00 +16°C° 0 mm 1 mps 542 mmHg 63%
10:00 +18°C° 0 mm 2 mps 543 mmHg 55%
11:00 +19°C° 0.1 mm 2 mps 543 mmHg 51%
12:00 +20°C° 0.1 mm 2 mps 543 mmHg 47%
13:00 +21°C° 0.1 mm 3 mps 543 mmHg 43%
14:00 +21°C° 0.1 mm 3 mps 542 mmHg 44%
15:00 +20°C° 0.1 mm 3 mps 542 mmHg 45%
16:00 +20°C° 0.1 mm 2 mps 541 mmHg 47%
17:00 +19°C° 0.2 mm 2 mps 541 mmHg 53%
18:00 +17°C° 0.2 mm 2 mps 541 mmHg 59%
19:00 +16°C° 0.2 mm 2 mps 541 mmHg 65%
20:00 +15°C° 0 mm 2 mps 541 mmHg 65%
21:00 +14°C° 0 mm 1 mps 541 mmHg 66%
22:00 +14°C° 0 mm 1 mps 541 mmHg 66%
23:00 +13°C° 0 mm 1 mps 540 mmHg 67%

18 August, Tuesday

Time Temperature Precipitation Wind Pressure Humidity
00:00 +12°C° 0 mm 0 mps 540 mmHg 68%
01:00 +11°C° 0 mm 0 mps 539 mmHg 70%
02:00 +11°C° 0 mm 0 mps 539 mmHg 69%
03:00 +12°C° 0 mm 1 mps 539 mmHg 68%
04:00 +11°C° 0 mm 1 mps 538 mmHg 67%
05:00 +12°C° 0 mm 1 mps 539 mmHg 63%
06:00 +12°C° 0 mm 1 mps 540 mmHg 59%
07:00 +13°C° 0 mm 1 mps 540 mmHg 55%
08:00 +14°C° 0 mm 1 mps 541 mmHg 48%
09:00 +16°C° 0 mm 1 mps 542 mmHg 41%
10:00 +19°C° 0 mm 1 mps 543 mmHg 34%
11:00 +20°C° 0 mm 1 mps 543 mmHg 32%
12:00 +21°C° 0 mm 1 mps 543 mmHg 29%
13:00 +23°C° 0 mm 1 mps 543 mmHg 26%
14:00 +23°C° 0 mm 2 mps 543 mmHg 28%
15:00 +23°C° 0 mm 2 mps 542 mmHg 30%
16:00 +23°C° 0 mm 2 mps 542 mmHg 31%
17:00 +20°C° 0 mm 2 mps 542 mmHg 43%
18:00 +18°C° 0 mm 2 mps 542 mmHg 54%
19:00 +16°C° 0 mm 2 mps 541 mmHg 66%
20:00 +16°C° 0.1 mm 2 mps 541 mmHg 67%
21:00 +15°C° 0.1 mm 1 mps 541 mmHg 69%
22:00 +14°C° 0.1 mm 1 mps 541 mmHg 71%
23:00 +14°C° 0.1 mm 1 mps 541 mmHg 68%

19 August, Wednesday

Time Temperature Precipitation Wind Pressure Humidity
00:00 +14°C° 0.1 mm 1 mps 541 mmHg 66%
01:00 +13°C° 0.1 mm 1 mps 540 mmHg 64%
02:00 +13°C° 0 mm 1 mps 540 mmHg 63%
03:00 +12°C° 0 mm 1 mps 539 mmHg 63%
04:00 +10°C° 0 mm 2 mps 539 mmHg 62%
05:00 +12°C° 0 mm 1 mps 539 mmHg 59%
06:00 +12°C° 0 mm 1 mps 540 mmHg 57%
07:00 +12°C° 0 mm 1 mps 540 mmHg 55%
08:00 +14°C° 0 mm 1 mps 541 mmHg 47%
09:00 +16°C° 0 mm 1 mps 542 mmHg 40%
10:00 +19°C° 0 mm 1 mps 542 mmHg 32%
11:00 +20°C° 0 mm 1 mps 542 mmHg 29%
12:00 +20°C° 0 mm 2 mps 542 mmHg 26%
13:00 +23°C° 0 mm 2 mps 542 mmHg 23%
14:00 +23°C° 0 mm 2 mps 542 mmHg 25%
15:00 +23°C° 0 mm 2 mps 542 mmHg 26%
16:00 +23°C° 0 mm 2 mps 542 mmHg 28%
17:00 +20°C° 0 mm 2 mps 542 mmHg 41%
18:00 +18°C° 0 mm 2 mps 541 mmHg 55%
19:00 +16°C° 0 mm 2 mps 541 mmHg 68%
20:00 +15°C° 0.1 mm 2 mps 541 mmHg 72%
21:00 +15°C° 0.1 mm 2 mps 541 mmHg 76%
22:00 +14°C° 0.1 mm 1 mps 541 mmHg 79%
23:00 +13°C° 0 mm 1 mps 541 mmHg 81%
Show more